When you browse on this site, cookies collect data to enhance your experience and personalize the content and advertising you see.
Visit our Privacy Policy to learn more. By continuing to use the site, you agree to this use of cookies and data.
  • In Lithuania
  • List of Countries
  • For 7 days
  • Water Temperature
  • Weather Map
  • Weather Widgets
  • user-avatar
    Login

    Hourly Weather Staraya Bezginka

    Today, 23 August, Friday

    Time Temperature Precipitation Wind Pressure Humidity
    00:00 +23°C° 0 mm 2 mps 752 mmHg 66%
    01:00 +21°C° 0 mm 3 mps 752 mmHg 71%
    02:00 +21°C° 0 mm 3 mps 752 mmHg 75%
    03:00 +21°C° 0 mm 3 mps 752 mmHg 77%
    04:00 +20°C° 0 mm 3 mps 752 mmHg 81%
    05:00 +20°C° 0 mm 4 mps 752 mmHg 85%
    06:00 +20°C° 0 mm 4 mps 753 mmHg 89%
    07:00 +21°C° 0 mm 4 mps 753 mmHg 85%
    08:00 +22°C° 0 mm 4 mps 753 mmHg 82%
    09:00 +23°C° 0 mm 5 mps 753 mmHg 79%
    10:00 +25°C° 0 mm 5 mps 753 mmHg 76%
    11:00 +26°C° 0 mm 5 mps 753 mmHg 72%
    12:00 +27°C° 0 mm 5 mps 753 mmHg 69%
    13:00 +27°C° 0 mm 5 mps 753 mmHg 68%
    14:00 +27°C° 0 mm 5 mps 753 mmHg 67%
    15:00 +27°C° 0 mm 5 mps 753 mmHg 65%
    16:00 +27°C° 0 mm 5 mps 753 mmHg 68%
    17:00 +26°C° 0 mm 5 mps 753 mmHg 70%
    18:00 +25°C° 0 mm 5 mps 753 mmHg 73%
    19:00 +23°C° 0.1 mm 5 mps 753 mmHg 77%
    20:00 +22°C° 0.1 mm 5 mps 753 mmHg 81%
    21:00 +21°C° 0.1 mm 4 mps 753 mmHg 85%
    22:00 +20°C° 0 mm 4 mps 753 mmHg 86%
    23:00 +20°C° 0 mm 4 mps 753 mmHg 87%

    Tomorrow, 24 August, Saturday

    Time Temperature Precipitation Wind Pressure Humidity
    00:00 +19°C° 0 mm 4 mps 753 mmHg 88%
    01:00 +19°C° 0 mm 4 mps 753 mmHg 87%
    02:00 +19°C° 0 mm 4 mps 753 mmHg 87%
    03:00 +18°C° 0 mm 4 mps 753 mmHg 87%
    04:00 +18°C° 0 mm 4 mps 753 mmHg 87%
    05:00 +18°C° 0 mm 4 mps 753 mmHg 88%
    06:00 +17°C° 0 mm 3 mps 753 mmHg 88%
    07:00 +18°C° 0 mm 4 mps 753 mmHg 84%
    08:00 +19°C° 0 mm 4 mps 754 mmHg 79%
    09:00 +21°C° 0 mm 4 mps 754 mmHg 75%
    10:00 +22°C° 0 mm 4 mps 754 mmHg 71%
    11:00 +25°C° 0 mm 4 mps 753 mmHg 66%
    12:00 +26°C° 0 mm 4 mps 753 mmHg 62%
    13:00 +27°C° 0 mm 4 mps 753 mmHg 61%
    14:00 +27°C° 0 mm 4 mps 753 mmHg 59%
    15:00 +28°C° 0 mm 4 mps 753 mmHg 58%
    16:00 +27°C° 0 mm 4 mps 753 mmHg 60%
    17:00 +26°C° 0 mm 4 mps 753 mmHg 62%
    18:00 +26°C° 0 mm 4 mps 752 mmHg 64%
    19:00 +24°C° 0 mm 3 mps 752 mmHg 67%
    20:00 +22°C° 0 mm 3 mps 753 mmHg 71%
    21:00 +20°C° 0 mm 3 mps 753 mmHg 75%
    22:00 +19°C° 0 mm 3 mps 753 mmHg 72%
    23:00 +19°C° 0 mm 3 mps 753 mmHg 69%

    Day after tomorrow, 25 August, Sunday

    Time Temperature Precipitation Wind Pressure Humidity
    00:00 +18°C° 0 mm 3 mps 753 mmHg 66%
    01:00 +18°C° 0 mm 3 mps 753 mmHg 64%
    02:00 +17°C° 0 mm 3 mps 753 mmHg 63%
    03:00 +16°C° 0 mm 3 mps 753 mmHg 62%
    04:00 +16°C° 0 mm 3 mps 753 mmHg 64%
    05:00 +16°C° 0 mm 3 mps 753 mmHg 66%
    06:00 +14°C° 0 mm 3 mps 753 mmHg 68%
    07:00 +17°C° 0 mm 3 mps 753 mmHg 64%
    08:00 +19°C° 0 mm 3 mps 753 mmHg 60%
    09:00 +21°C° 0 mm 3 mps 753 mmHg 57%
    10:00 +22°C° 0 mm 4 mps 753 mmHg 52%
    11:00 +25°C° 0 mm 4 mps 753 mmHg 47%
    12:00 +26°C° 0 mm 4 mps 753 mmHg 43%
    13:00 +26°C° 0 mm 4 mps 753 mmHg 43%
    14:00 +27°C° 0 mm 4 mps 753 mmHg 43%
    15:00 +27°C° 0 mm 4 mps 753 mmHg 43%
    16:00 +27°C° 0 mm 4 mps 753 mmHg 48%
    17:00 +26°C° 0 mm 4 mps 753 mmHg 52%
    18:00 +25°C° 0 mm 3 mps 753 mmHg 57%
    19:00 +24°C° 0 mm 3 mps 753 mmHg 63%
    20:00 +21°C° 0 mm 3 mps 753 mmHg 69%
    21:00 +19°C° 0 mm 3 mps 754 mmHg 75%
    22:00 +19°C° 0 mm 3 mps 754 mmHg 76%
    23:00 +18°C° 0 mm 3 mps 754 mmHg 77%

    26 August, Monday

    Time Temperature Precipitation Wind Pressure Humidity
    00:00 +17°C° 0 mm 3 mps 754 mmHg 77%
    01:00 +17°C° 0 mm 3 mps 755 mmHg 78%
    02:00 +16°C° 0 mm 3 mps 755 mmHg 79%
    03:00 +14°C° 0 mm 3 mps 755 mmHg 79%
    04:00 +14°C° 0 mm 3 mps 755 mmHg 83%
    05:00 +13°C° 0 mm 3 mps 755 mmHg 87%
    06:00 +13°C° 0 mm 3 mps 755 mmHg 90%
    07:00 +14°C° 0 mm 3 mps 756 mmHg 83%
    08:00 +17°C° 0 mm 4 mps 756 mmHg 76%
    09:00 +19°C° 0 mm 4 mps 756 mmHg 68%
    10:00 +20°C° 0 mm 4 mps 756 mmHg 61%
    11:00 +21°C° 0 mm 4 mps 756 mmHg 54%
    12:00 +23°C° 0 mm 4 mps 756 mmHg 48%
    13:00 +23°C° 0 mm 4 mps 756 mmHg 45%
    14:00 +25°C° 0 mm 4 mps 756 mmHg 42%
    15:00 +25°C° 0 mm 3 mps 756 mmHg 39%
    16:00 +25°C° 0 mm 3 mps 755 mmHg 42%
    17:00 +24°C° 0 mm 3 mps 755 mmHg 45%
    18:00 +24°C° 0 mm 2 mps 755 mmHg 49%
    19:00 +21°C° 0 mm 2 mps 755 mmHg 53%
    20:00 +19°C° 0 mm 2 mps 755 mmHg 57%
    21:00 +17°C° 0 mm 2 mps 755 mmHg 61%
    22:00 +17°C° 0 mm 2 mps 755 mmHg 63%
    23:00 +16°C° 0 mm 2 mps 755 mmHg 65%

    27 August, Tuesday

    Time Temperature Precipitation Wind Pressure Humidity
    00:00 +15°C° 0 mm 1 mps 755 mmHg 67%
    01:00 +15°C° 0 mm 1 mps 755 mmHg 68%
    02:00 +15°C° 0 mm 1 mps 755 mmHg 70%
    03:00 +14°C° 0 mm 1 mps 754 mmHg 72%
    04:00 +14°C° 0 mm 1 mps 754 mmHg 73%
    05:00 +14°C° 0 mm 1 mps 754 mmHg 74%
    06:00 +13°C° 0 mm 1 mps 754 mmHg 75%
    07:00 +16°C° 0 mm 1 mps 754 mmHg 68%
    08:00 +19°C° 0 mm 1 mps 754 mmHg 61%
    09:00 +21°C° 0 mm 1 mps 754 mmHg 54%
    10:00 +22°C° 0 mm 1 mps 754 mmHg 49%
    11:00 +24°C° 0 mm 1 mps 754 mmHg 44%
    12:00 +25°C° 0 mm 1 mps 753 mmHg 39%
    13:00 +25°C° 0 mm 2 mps 753 mmHg 38%
    14:00 +26°C° 0 mm 2 mps 753 mmHg 36%
    15:00 +26°C° 0 mm 2 mps 752 mmHg 35%
    16:00 +25°C° 0 mm 2 mps 752 mmHg 39%
    17:00 +25°C° 0 mm 2 mps 752 mmHg 43%
    18:00 +24°C° 0 mm 2 mps 752 mmHg 47%
    19:00 +21°C° 0 mm 2 mps 752 mmHg 51%
    20:00 +20°C° 0 mm 2 mps 752 mmHg 55%
    21:00 +18°C° 0 mm 2 mps 752 mmHg 59%
    22:00 +17°C° 0 mm 2 mps 752 mmHg 62%
    23:00 +17°C° 0 mm 2 mps 752 mmHg 65%

    28 August, Wednesday

    Time Temperature Precipitation Wind Pressure Humidity
    00:00 +16°C° 0 mm 2 mps 752 mmHg 68%
    01:00 +16°C° 0 mm 2 mps 752 mmHg 72%
    02:00 +16°C° 0 mm 2 mps 752 mmHg 77%
    03:00 +15°C° 0 mm 2 mps 752 mmHg 81%
    04:00 +15°C° 0 mm 2 mps 752 mmHg 84%
    05:00 +15°C° 0 mm 2 mps 752 mmHg 88%
    06:00 +15°C° 0 mm 2 mps 752 mmHg 91%
    07:00 +17°C° 0 mm 2 mps 752 mmHg 84%
    08:00 +19°C° 0 mm 3 mps 752 mmHg 77%
    09:00 +21°C° 0 mm 3 mps 753 mmHg 70%
    10:00 +22°C° 0 mm 4 mps 753 mmHg 64%
    11:00 +23°C° 0 mm 4 mps 752 mmHg 59%
    12:00 +25°C° 0 mm 4 mps 752 mmHg 54%
    13:00 +25°C° 0 mm 4 mps 752 mmHg 50%
    14:00 +26°C° 0 mm 4 mps 752 mmHg 47%
    15:00 +26°C° 0 mm 4 mps 752 mmHg 43%
    16:00 +25°C° 0 mm 4 mps 752 mmHg 46%
    17:00 +24°C° 0 mm 3 mps 752 mmHg 49%
    18:00 +24°C° 0 mm 3 mps 752 mmHg 51%
    19:00 +21°C° 0 mm 3 mps 752 mmHg 57%
    20:00 +19°C° 0 mm 3 mps 752 mmHg 62%
    21:00 +17°C° 0 mm 3 mps 753 mmHg 68%
    22:00 +17°C° 0 mm 3 mps 753 mmHg 68%
    23:00 +16°C° 0 mm 3 mps 753 mmHg 68%
    Show more